This is the latest recevied weather packets stored in our database for station/object KF7U. If no packets are shown the sender has not sent any weather packets the latest 10 day(s).
| Time | Temp. | Humidity | Pressure | Rain* | Wind** | Luminosity | Snow |
|---|---|---|---|---|---|---|---|
| 1778167657 | 25° C | 25% | 1012.5 hPa | 0 mm | - | 535 W/m² | - |
| 1778167355 | 25° C | 26% | 1012.5 hPa | 0 mm | - | 513 W/m² | - |
| 1778167054 | 24.44° C | 26% | 1012.5 hPa | 0 mm | - | 488 W/m² | - |
| 1778166755 | 23.89° C | 27% | 1012.5 hPa | 0 mm | - | 462 W/m² | - |
| 1778166457 | 23.33° C | 27% | 1012.5 hPa | 0 mm | - | 437 W/m² | - |
| 1778166155 | 23.33° C | 28% | 1012.5 hPa | 0 mm | - | 439 W/m² | - |
| 1778165855 | 22.78° C | 29% | 1012.5 hPa | 0 mm | - | 414 W/m² | - |
| 1778165555 | 22.78° C | 30% | 1012.5 hPa | 0 mm | - | 390 W/m² | - |
| 1778165255 | 22.22° C | 31% | 1012.5 hPa | 0 mm | - | 365 W/m² | - |
| 1778164955 | 21.67° C | 31% | 1012.5 hPa | 0 mm | - | 288 W/m² | - |
| 1778164662 | 21.67° C | 32% | 1012.5 hPa | 0 mm | - | 304 W/m² | - |
| 1778164355 | 21.11° C | 33% | 1012.5 hPa | 0 mm | - | 287 W/m² | - |
| 1778164057 | 21.11° C | 33% | 1012.5 hPa | 0 mm | - | 212 W/m² | - |
| 1778163755 | 20.56° C | 33% | 1012.5 hPa | 0 mm | - | 208 W/m² | - |
| 1778163455 | 20° C | 34% | 1012.5 hPa | 0 mm | - | 200 W/m² | - |
| 1778163155 | 19.44° C | 34% | 1012.5 hPa | 0 mm | - | 133 W/m² | - |
| 1778162855 | 19.44° C | 35% | 1012.5 hPa | 0 mm | - | 88 W/m² | - |
| 1778162557 | 19.44° C | 37% | 1012.5 hPa | 0 mm | - | 70 W/m² | - |
| 1778161955 | 18.33° C | 38% | 1012.2 hPa | 0 mm | - | 97 W/m² | - |
| 1778161656 | 18.33° C | 39% | 1012.2 hPa | 0 mm | - | 69 W/m² | - |
| 1778161354 | 17.78° C | 40% | 1012.2 hPa | 0 mm | - | 62 W/m² | - |
| 1778161055 | 17.22° C | 41% | 1012.2 hPa | 0 mm | - | 72 W/m² | - |
| 1778160756 | 16.67° C | 41% | 1012.2 hPa | 0 mm | - | 59 W/m² | - |
| 1778160455 | 16.67° C | 43% | 1012.2 hPa | 0 mm | - | 52 W/m² | - |
| 1778160156 | 16.11° C | 44% | 1012.2 hPa | 0 mm | - | 47 W/m² | - |
* Rain latest hour (hover to see other rain measurements)
** Current wind speed in m/s (hover to see current wind gust speed)